Location: Miss�
(46.9484°N, 0.1922°W)
Time: 21:17:11
(UTC+00:00)

SeaSat 1 - Pass Details

Date: 02 March 2021
Orbit: 744 x 747 km, 108.0° (Epoch: 14 April)

Event Time Altitude Azimuth Distance (km) Brightness Sun altitude
Rises 18:38:42 0° 33° (NNE) 3,201 5.4 -9.5°
Reaches altitude 10° 18:41:04 10° 39° (NE) 2,273 4.6 -9.9°
Maximum altitude 18:45:49 46° 113° (ESE) 1,006 2.7 -10.7°
Drops below altitude 10° 18:50:32 10° 186° (S) 2,259 5.0 -11.5°
Sets 18:52:52 0° 192° (SSW) 3,178 5.8 -11.9°
